Location: 81360 Arifat, France
(43.7204°N, 2.3408°E)
Time: 18:44:38
(UTC+02:00)

GHALIB - Pass Details

Date: 31 May 2022
Orbit: 510 x 523 km, 97.6° (Epoch: 29 June)

Event Time Altitude Azimuth Distance (km) Brightness Sun altitude
Exits shadow 02:15:22 10° 93° (E) 1,783 ? -24.1°
Maximum altitude 02:17:14 13° 63° (ENE) 1,584 ? -24.1°
Drops below altitude 10° 02:18:58 10° 36° (NE) 1,762 ? -24.0°
Sets 02:22:03 0° 8° (N) 2,652 ? -23.9°
